Preview of NWS' New Version of Forecast
This preview is not operational and should not be used for support decisions.

Regional Weather Roundup (RWR)

Issued by Gray - Portland, ME (GYX)

                            
000
ASUS41 KGYX 172210
RWRGYX
WEATHER ROUNDUP FOR MAINE AND NEW HAMPSHIRE
NATIONAL WEATHER SERVICE GRAY ME
500 PM EST THU JAN 17 2019

MEZ002-005-006-010-012-015-018-020-021-024-026-027-029-172300-
MAINE
  
CITY           SKY/WX    TMP DP  RH WIND       PRES   REMARKS
PORTLAND       FAIR      20   1  43 SE5       30.34S                  
SANFORD        FAIR      18   1  47 N3        30.32F                  
BAR HARBOR     FAIR      12  -5  46 CALM      30.37R                  
WISCASSET      FAIR      14  -2  49 CALM      30.37R                  
ROCKLAND       FAIR      15  -4  42 CALM      30.36R                  
FRYEBURG       FAIR      13  -6  42 W3        30.29S                  
LEWISTONAUBURN FAIR      19  -9  28 E3        30.33R                  
AUGUSTA        FAIR      14  -8  37 CALM      30.33R                  
WATERVILLE     FAIR      11  -8  42 MISG      30.29F                  
BANGOR         FAIR      10  -2  58 N3        30.35R                  
GREENVILLE       N/A      1 -12  54 NE3       30.18R                  
MILLINOCKET    FAIR       5 -10  50 W6        30.32R                  
HOULTON        FAIR      -4 -11  72 CALM      30.28S                  
PRESQUE ISLE   FAIR      -5 -15  62 CALM      30.28S                  
FRENCHVILLE    FAIR       0 -14  51 SW3       30.20S                  
CARIBOU        FAIR      -1 -15  51 CALM      30.25S                  
$$

NHZ002-005-008-009-011-012-014-172300-
NEW HAMPSHIRE
  
CITY           SKY/WX    TMP DP  RH WIND       PRES   REMARKS
PORTSMOUTH     MOCLDY    20  -8  29 CALM      30.32F                  
ROCHESTER      FAIR      20  -7  30 CALM      30.31S                  
NASHUA         FAIR      24  -1  33 CALM      30.32S                  
MANCHESTER     MOCLDY    23  -3  32 CALM      30.31S                  
CONCORD        FAIR      19  -2  39 CALM      30.31S                  
LACONIA        FAIR      17  -4  39 W3        30.30S                  
PLYMOUTH       FAIR      13  -4  46 CALM      30.30F                  
BERLIN         FAIR       8  -7  50 N5        30.24S                  
WHITEFIELD     FAIR       5  -1  76 CALM      30.26S                  
JAFFREY        FAIR      21  -4  33 CALM      30.25R                  
KEENE          FAIR      22   0  38 CALM      30.29S                  
LEBANON        FAIR      12   0  58 CALM      30.28F                  
MT WASHINGTON  PTCLDY     0 -17  46 W36         N/A  WCI -28          
$$

VTZ005-007-008-172300-
VERMONT
  
CITY           SKY/WX    TMP DP  RH WIND       PRES   REMARKS
ST JOHNSBURY     N/A     11  -7  44 MISG      30.27F                  
MONTPELIER     FAIR       6  -3  66 CALM      30.26F                  
BURLINGTON     MOCLDY    12  -3  51 CALM      30.30F                  
$$

MAZ007-012-024-CTZ003-RIZ002-NYZ038-NYZ072-172300-
SOUTHERN NEW ENGLAND AND NY
  
CITY           SKY/WX    TMP DP  RH WIND       PRES   REMARKS
BOSTON         FAIR      25   0  33 E5        30.35R                  
WORCESTER      FAIR      23  -8  25 CALM      30.26R                  
NANTUCKET      FAIR      25  12  58 N5        30.35S                  
PROVIDENCE     MOCLDY    26   0  32 SE5       30.34S                  
HARTFORD       MOCLDY    25  -4  28 SE5       30.30F                  
ALBANY         MOCLDY    22  -6  29 CALM      30.31F                  
NEW YORK CITY  CLOUDY    31   5  33 E7        30.32R                  
$$

ANZ081-ANZ082-ANZ150-NHZ014-MEZ023>029-172300-
COASTAL MARINE OBSERVATIONS
  
STATION/POSITION TIME  TEMP    WIND        PRES    WAVE
                       AIR SEA DIR/SP/G            HT/PER
                 (UTC) (F)     (DEG/KT/KT) (MB)    (FT/S)
MOUNT DESERT ROC 2200   18     320/  5/  7 1028.0R
MATINICUS ROCK   2100   20     320/  7/ 10 1027.2F
ISLE OF SHOALS   2100   24     280/  4/  5 1027.2F
JEFFREYS LEDGE   2138      43                N/A     2/11
CASHES LEDGE BUO 2050   23 40              1028.4    3/ 5
$$

.............KEY..............
   WCI - WIND CHILL
   TC  - TEMPERATURE IN CELSIUS
   VSB - VISIBILITY IN MILES
   HX  - HEAT INDEX
   FAIR- INDICATES FEW OR NO CLOUDS BELOW 12,000 FT, WITH NO 
         SIGNIFICANT WEATHER AND/OR OBSTRUCTIONS TO VISIBILITY.